Location: Acequia del Cap
(41.7000°N, 0.6167°E)
Time: 15:39:28
(UTC+00:00)

Meteor 1-24 Rocket - Pass Details

Date: 07 August 2020
Orbit: 789 x 928 km, 81.3° (Epoch: 22 September)

Event Time Altitude Azimuth Distance (km) Brightness Sun altitude
Rises 01:58:32 0° 353° (N) 3,392 7.6 -26.2°
Reaches altitude 10° 02:01:02 10° 358° (N) 2,435 6.8 -25.9°
Maximum altitude 02:06:26 58° 77° (ENE) 937 4.0 -25.4°
Enters shadow 02:08:29 36° 139° (SE) 1,259 4.4 -25.2°
